Regional Weather Roundup
Issued by NWS Goodland, KS

Home | Current Version | Previous Version | Text Only | Print | Product List | Glossary On
Versions: 1 2 3 4 5 6 7 8 9 10 11 12 13 14 15 16 17 18 19 20 21 22 23 24 25 26 27 28 29 30 31 32 33 34 35 36 37 38 39 40 41 42 43 44 45 46 47 48 49 50
000
ASUS43 KGLD 282208
RWRGLD

GOODLAND FORECAST AREA HOURLY WEATHER ROUNDUP
NATIONAL WEATHER SERVICE GOODLAND KS
300 PM MST WED JAN 28 2015

...OFFICIAL OBSERVATIONS...

CITY           SKY/WX    TMP DP  RH WIND       PRES   REMARKS
GOODLAND KS    SUNNY     63  31  30 NW36G48   29.95R
HILL CITY KS   SUNNY     71  29  21 NW20G31   29.83R
IMPERIAL NEB   PTSUNNY   62  32  32 NW28G39   29.92R
MCCOOK NEB     SUNNY     67  32  27 NW26G37   29.85R
AKRON CO       MOSUNNY   55  31  39 NW36G48   30.04R
BURLINGTON CO  SUNNY     62  27  26 NW29G37   30.00R
LIMON CO       SUNNY     58  18  21 NW22G33   30.06R
$$

...UNOFFICIAL OBSERVATIONS...

CITY           SKY/WX    TMP DP  RH WIND       PRES   REMARKS
COLBY KS       SUNNY     66  37  34 NW29G38   29.92R
GOVE KS          N/A     69  32  25 MISG        N/A
NORTON KS      SUNNY     68  27  21 NW28G38   29.82R
SHARON SPRINGS   N/A     66  27  23 NW24G37     N/A
KIT CARSON CO    N/A     64  28  25 MISG        N/A
$$



USA.gov is the U.S. government's official web portal to all federal, state and local government web resources and services.